Regional Weather Roundup
Issued by NWS Newport/Morehead, NC

Current Version | Previous Version | Graphics & Text | Print | Product List | Glossary On
Versions: 1 2 3 4 5 6 7 8 9 10 11 12 13 14 15 16 17 18 19 20 21 22 23 24 25 26 27 28 29 30 31 32 33 34 35 36 37 38 39 40 41 42 43 44 45 46 47 48 49 50
000 ASUS42 KMHX 221525 RWRMHX WEATHER ROUNDUP FOR EASTERN NORTH CAROLINA NATIONAL WEATHER SERVICE NEWPORT/MOREHEAD CITY NC 1000 AM EST THU FEB 22 2018 NOTE: "FAIR" INDICATES FEW OR NO CLOUDS BELOW 12,000 FEET WITH NO SIGNIFICANT WEATHER AND/OR OBSTRUCTIONS TO VISIBILITY NCZ015>017-031-032-045>047-102-103-221600- NORTH COAST CITY SKY/WX TMP DP RH WIND PRES REMARKS EDENTON CLOUDY 68 68 100 SW6 30.50S ELIZABETH CITY CLOUDY 66 66 100 SW13 30.49S KITTY HAWK PTSUNNY N/A N/A N/A SW6 30.49S MANTEO CLOUDY 64 64 100 W7 30.51S $$ NCZ045>047-081-094-103-104-221600- CENTRAL COAST CITY SKY/WX TMP DP RH WIND PRES REMARKS FRISCO CLOUDY 67 65 93 SW6 30.52R $$ NCZ095-097-098-100-101-221600- SOUTHERN COAST CITY SKY/WX TMP DP RH WIND PRES REMARKS BEAUFORT FAIR 71 66 84 SW8 30.51S CEDAR ISLAND NOT AVBL JACKSONVILLE PTSUNNY 72 65 78 SW12G18 30.50S PINEY ISLAND NOT AVBL WILMINGTON CLOUDY 73 64 73 SW8 30.51R $$ NCZ011>013-027>030-043-044-078>080-089-090>093-098-221600- COASTAL PLAIN CITY SKY/WX TMP DP RH WIND PRES REMARKS AHOSKIE CLOUDY 67 65 94 SW5 30.48S CLINTON CLOUDY 67 67 100 SW7 30.51S ELIZABETHTOWN NOT AVBL GOLDSBORO CLOUDY 69 66 91 SW12 30.48R GREENVILLE CLOUDY 70 64 83 SW10 30.49R HAVELOCK PTSUNNY 74 67 78 SW12 30.51F KENANSVILLE CLOUDY 72 66 83 SW6 30.50S KINSTON PTSUNNY 73 66 78 SW13G21 30.50S NEW BERN FAIR 71 64 78 SW9 30.51S RICHLANDS PTSUNNY 70 65 84 S13 30.51S ROCKY MOUNT CLOUDY 70 64 81 S13G18 30.49R WASHINGTON CLOUDY 74 65 75 W10 30.49S WHITEVILLE PTSUNNY 68 67 97 S7 30.50S $$ AMZ130-135-150-152-154-156-158-170-250-252-270-ANZ085-086-088-633-658-670-221600- MARINE OBSERVATIONS STATION/POSITION TIME TEMP WIND PRES WAVE SWELL AIR SEA DIR/SP/G HT/PER HT/PER (UTC) (F) (DEG/KT/KT) (MB) (FT/S) (FT/S) CHESAPEAKE LIGHT NOT AVBL 64 E VA BEACH 1450 54 50 210/ 10/ 12 1032.5 3/15 3/15 DUCK 1500 63 45 220/ 8/ 11 1032.2 2 E DUCK 1500 47 N/A 3/13 2/13 OREGON INLET 1500 61 62 170/ 3/ 4 1033.1 13E OREGON INLT 1448 49 N/A 4/13 3/13 HATTERAS CG 1500 69 60 240/ 8/ 12 1033.2 DIAMOND BUOY 1510 72 69 200/ 12/ 14 1033.7 CAPE LOOKOUT 1500 220/ 6/ 7 1033.4 BEAUFORT LAB 1500 70 59 210/ 4/ 4 1033.4 30 SE NEW RVR IN 1408 71 69 220/ 4/ 8 1033.1 30 SE NEW RVR IN 1500 69 N/A 4/ 8 2/14 27 SE WRIGHTSVLE 1408 69 67 210/ 6/ 10 1033.1 5 SE WRIGHTSVLE 1508 62 58 CALM / 4 1033.1 225 S CAPE HAT 1450 72 74 120/ 12/ 14 1033.3 6/ 9 7/ 9 41 SE CHARLESTON 1510 71 68 350/ 2/ 2 1032.7 $$

USA.gov is the U.S. government's official web portal to all federal, state and local government web resources and services.